Temperature
32 32 32 33 34 34 34 33 33 34 35 35 34 33 33 32 32 31 30 29 28 27 26 25 24 23 22 21 21 21 20 20 20 20 20 20 19 19 19 19 19 19 19 19
32 32 33 34 35 34 34 33 33 34 35 35 34 34 34 34 33 31 30 29 28 27 26 25 24 23 22 21 21 21 20 20 20 20 20 20 20 19 19 19 19 19 19 19
32 33 34 34 34 34 33 33 33 33 34 34 34 33 33 33 33 32 31 30 29 28 27 25 24 24 23 22 21 21 21 20 20 20 20 20 20 19 19 19 19 19 19 19
33 34 34 34 34 34 33 34 34 34 33 33 33 31 31 32 32 32 32 31 30 29 27 26 25 24 23 22 22 21 21 21 20 20 20 20 20 20 20 20 19 19 19 19
33 34 34 33 34 34 34 35 34 34 33 33 33 32 31 31 31 31 32 31 30 29 28 26 25 24 24 23 22 21 21 20 20 20 20 20 20 20 20 20 19 19 19 19
33 35 34 34 35 35 35 34 34 34 33 31 32 32 30 30 30 30 31 31 31 30 28 27 26 25 24 23 22 21 21 21 20 20 20 20 20 20 20 20 20 19 19 19
32 33 34 35 34 34 34 33 31 31 30 30 32 32 30 31 32 31 31 31 31 30 29 28 26 25 24 23 23 22 21 21 21 20 20 20 20 20 20 20 19 19 19 19
31 32 33 34 33 33 33 33 31 30 30 30 31 31 31 33 32 32 31 31 31 30 29 28 27 25 24 24 23 22 21 21 21 20 20 20 20 20 20 20 20 20 20 19
31 31 34 34 34 33 32 32 33 32 31 30 30 31 31 32 32 32 32 31 31 30 29 28 27 26 25 24 23 22 22 21 21 20 20 20 20 20 20 20 20 20 20 20
31 30 32 34 34 34 33 33 32 31 30 29 30 30 30 31 31 32 32 31 30 30 29 28 27 26 25 24 23 23 22 21 21 20 20 20 20 20 20 20 20 20 20 20
31 30 31 32 32 31 32 32 32 31 31 30 29 29 30 30 30 30 30 30 29 29 29 28 27 26 25 24 24 23 22 21 21 20 20 20 19 19 20 19 19 19 19 19
31 30 30 31 33 33 32 32 32 30 30 30 29 29 31 31 31 31 30 29 28 28 27 27 26 25 25 24 24 23 22 21 21 20 20 19 19 19 19 19 19 19 19 19
29 28 28 29 30 31 31 32 32 32 31 30 29 29 31 30 31 30 30 29 27 27 26 26 25 24 24 24 23 23 22 21 21 20 20 19 19 19 19 19 19 19 19 19
27 28 28 27 28 30 30 30 31 31 30 30 30 29 30 30 30 29 28 27 27 26 25 25 24 23 23 23 22 22 21 21 21 20 20 19 19 19 19 19 18 18 18 18
28 27 28 29 29 30 30 30 30 30 30 30 30 29 29 29 29 28 27 26 26 25 25 24 23 22 22 22 21 21 21 20 20 20 19 19 19 19 18 18 18 18 18 18
27 26 27 27 29 29 29 29 30 30 30 30 30 29 29 28 28 27 27 26 25 24 23 22 22 21 21 20 20 20 20 20 20 19 19 19 19 18 18 18 18 18 18 18
26 25 25 26 28 28 27 28 29 29 29 29 28 28 28 27 26 26 26 25 24 23 22 21 21 20 20 20 20 19 19 19 19 19 19 18 18 18 18 18 18 18 17 17
25 24 24 25 26 25 27 29 29 28 29 29 28 27 27 26 26 25 24 24 23 22 21 20 20 20 19 19 19 19 18 19 18 18 18 18 18 18 17 17 17 17 17 17
26 24 24 24 25 25 27 28 28 27 26 27 27 26 26 25 25 24 23 23 22 21 20 20 19 19 19 19 18 18 18 18 18 18 18 18 17 17 17 17 17 17 17 17
26 25 23 24 23 24 25 27 27 27 25 25 25 24 24 24 24 23 22 21 21 20 20 19 19 19 18 18 18 18 17 17 17 17 17 17 17 17 17 17 17 17 16 16
24 23 23 23 23 24 26 26 26 24 23 23 23 23 22 22 22 21 21 20 20 19 19 19 18 18 18 18 17 17 17 17 17 17 17 17 17 17 17 16 16 16 16 16
23 23 22 22 22 23 24 24 23 22 22 22 22 21 21 20 20 20 20 19 19 19 18 18 18 17 17 17 17 16 16 16 16 16 16 16 16 16 16 16 16 16 16 16
23 23 23 22 22 22 22 21 21 21 21 21 21 20 20 19 19 19 19 18 18 18 18 17 17 17 16 16 16 16 15 15 16 16 16 16 16 16 16 16 15 15 15 15
23 23 22 21 21 22 21 20 20 20 20 20 20 19 19 19 19 18 18 18 17 17 17 17 16 16 16 16 15 15 15 15 15 15 15 15 15 15 15 15 15 15 15 15
21 21 21 20 21 20 20 19 19 19 19 19 19 19 18 18 18 18 17 17 17 16 16 16 16 15 15 15 15 15 15 15 15 14 15 15 15 14 14 14 14 14 14 14
21 21 20 20 20 20 19 19 18 18 18 18 18 18 17 17 17 17 16 16 16 16 15 15 15 15 14 14 14 14 14 14 14 14 14 14 14 14 14 14 14 14 14 14
Wind_Speed
13 13 14 13 14 13 12 11 10 8 4 5 5 6 10 13 13 12 13 13 13 12 12 12 12 13 12 10 9 8 7 7 6 5 5 5 5 5 5 5 6 7 6 6
14 17 16 14 14 13 12 13 11 8 7 7 6 6 6 10 12 13 14 15 14 14 14 13 12 12 12 11 10 9 8 8 7 5 4 4 5 5 5 4 6 7 7 6
17 14 13 14 14 13 13 13 12 9 9 10 10 8 6 7 9 11 12 14 15 16 16 15 14 13 13 13 12 10 9 8 8 6 4 4 4 4 4 5 6 6 7 6
16 15 13 13 14 14 13 12 12 12 11 10 9 7 5 7 9 10 13 14 14 14 15 15 14 14 13 13 13 10 9 8 7 7 6 6 5 5 5 6 6 7 7 7
14 12 13 14 13 13 13 12 12 13 13 13 11 9 6 7 8 9 9 12 13 13 15 16 15 14 13 13 13 11 9 8 7 7 6 6 5 4 4 5 6 7 6 7
15 13 12 13 13 13 12 13 14 13 12 13 14 12 7 6 6 5 5 8 11 13 13 15 14 12 11 12 12 12 10 8 8 7 6 6 6 5 5 5 6 6 5 6
15 15 14 12 13 13 13 13 10 11 10 11 13 10 5 7 7 7 7 9 10 10 12 14 15 14 12 11 11 12 11 9 9 8 6 6 6 5 5 5 6 6 5 6
12 11 12 12 12 11 13 14 11 11 10 8 9 8 5 8 9 8 8 8 8 9 10 13 14 14 13 12 11 11 11 10 9 9 7 6 6 5 5 5 5 5 4 5
9 9 7 9 10 11 13 13 15 15 14 11 7 4 4 4 6 9 8 8 8 8 9 10 12 13 13 12 11 11 11 10 10 9 8 7 7 6 5 5 5 4 4 5
11 11 10 8 9 13 14 13 10 11 9 11 9 8 4 5 3 4 6 7 6 5 8 8 10 11 12 12 10 10 10 10 9 8 8 8 7 6 5 5 5 5 4 4
11 12 13 10 10 11 11 13 11 10 11 11 9 4 2 2 3 3 3 5 6 4 5 6 7 7 8 10 11 10 9 10 10 9 8 6 7 6 6 5 4 4 4 4
8 10 12 13 11 10 12 13 12 10 10 11 11 5 3 3 4 5 5 6 6 4 5 5 6 5 5 6 8 9 9 9 9 8 7 7 6 6 6 6 5 4 4 4
7 7 10 11 10 9 10 12 13 13 12 12 12 6 2 1 3 4 5 7 6 6 6 6 6 4 3 4 4 5 6 7 8 8 8 7 7 6 6 5 5 4 4 4
5 10 13 13 10 10 10 13 14 14 13 12 11 7 4 1 1 4 6 7 6 6 6 5 5 4 3 3 3 3 3 3 5 6 7 7 7 6 6 5 5 5 5 4
7 12 14 16 15 15 14 14 14 15 15 14 12 9 3 1 1 4 6 6 5 5 5 6 6 4 4 3 3 3 2 2 3 4 5 6 6 5 5 5 5 5 5 5
7 10 14 17 18 17 17 16 15 15 15 13 13 9 2 2 2 3 4 5 4 4 3 5 5 5 4 3 2 2 2 1 2 3 3 3 4 5 5 5 4 4 4 4
8 9 12 14 16 16 16 14 13 12 11 10 9 4 1 2 3 2 3 3 4 3 3 4 4 4 3 2 2 2 1 2 1 1 2 3 3 4 4 4 4 4 4 3
10 9 8 13 14 17 11 7 8 8 9 6 4 3 2 3 3 3 3 3 3 3 3 3 2 2 1 1 1 2 1 1 2 2 2 2 2 3 3 3 3 3 2 3
10 8 9 10 14 15 10 6 6 6 6 5 4 4 3 4 3 2 4 3 2 2 3 2 2 2 1 1 1 1 1 0 1 1 1 2 2 3 3 3 3 3 3 3
11 8 9 11 13 12 6 4 5 5 5 4 5 6 5 5 4 2 5 5 3 3 3 2 1 2 1 1 1 1 2 1 1 1 1 1 2 3 3 3 2 2 3 4
11 11 13 14 14 9 3 5 5 6 1 5 5 5 6 6 4 3 3 3 3 2 2 1 1 2 1 1 1 1 1 1 1 1 1 1 1 2 3 2 2 2 2 3
8 9 11 11 13 7 6 5 3 3 4 5 5 5 5 6 6 5 2 2 2 1 1 1 1 1 1 1 1 1 1 1 1 0 1 1 1 2 2 2 2 2 2 3
6 5 3 3 2 3 6 6 6 5 5 5 5 5 5 5 5 3 1 1 1 2 2 1 1 1 1 0 1 1 1 1 1 1 0 1 1 1 1 1 2 2 2 3
4 2 4 4 2 3 4 5 6 7 7 7 6 6 6 6 7 5 1 1 1 2 2 2 1 1 1 1 1 1 1 0 0 0 0 1 1 1 1 1 1 1 1 1
7 5 5 7 6 5 4 4 6 7 7 7 6 6 6 6 6 3 1 1 1 2 2 2 2 1 1 0 0 1 0 0 0 1 1 1 1 2 2 1 0 0 1 1
8 7 7 7 5 5 4 4 5 6 6 7 7 7 5 4 4 3 2 2 1 2 3 2 2 3 2 1 1 1 1 0 1 1 1 2 1 1 2 3 2 5 3 3
Wind_Direction
225 235 239 243 246 252 262 268 274 266 257 247 223 200 180 175 178 174 172 172 172 170 162 160 162 157 156 156 157 161 164 156 159 164 171 173 168 165 156 154 153 161 175 180
232 234 240 252 259 257 262 269 267 266 271 269 253 232 198 185 182 178 176 174 174 170 164 164 169 164 164 164 166 165 169 167 170 172 180 177 171 170 164 160 150 171 180 183
236 241 232 245 251 258 260 265 265 266 265 265 262 251 231 205 191 178 179 176 175 173 169 169 172 173 171 171 173 173 172 168 176 169 175 180 164 175 161 156 160 173 182 188
242 248 246 246 248 251 254 256 266 269 265 264 262 261 230 210 201 192 184 177 176 172 169 170 173 175 178 175 173 168 166 168 174 173 178 183 181 187 180 171 169 174 186 188
248 248 249 251 253 257 264 268 269 272 272 267 260 261 238 207 211 205 188 176 171 172 171 170 174 174 177 173 169 166 164 167 171 179 184 188 190 193 181 169 167 175 183 192
257 255 254 258 261 254 263 267 263 262 265 263 260 256 247 222 196 188 190 189 168 169 171 169 169 165 171 169 167 166 164 166 171 181 185 190 195 194 191 181 174 186 191 195
248 248 245 249 257 249 245 252 255 250 242 254 255 248 221 192 171 178 186 190 166 165 168 168 167 167 169 170 170 168 167 172 176 181 190 191 196 195 201 194 186 194 200 194
252 244 233 236 243 254 248 248 251 262 263 265 255 247 214 174 160 168 175 175 162 166 164 166 167 168 171 173 172 168 168 173 178 183 190 190 190 199 205 205 208 202 208 200
274 260 242 237 242 250 254 253 260 265 266 271 264 243 206 187 168 160 163 162 163 164 158 161 163 169 170 174 173 171 168 173 181 187 185 189 193 202 201 195 206 215 210 212
280 288 271 243 237 240 247 256 264 267 274 270 256 243 231 177 172 159 161 152 143 151 156 154 159 169 172 176 173 168 167 173 179 184 189 193 196 199 201 208 201 207 214 213
272 276 275 259 237 249 241 246 254 268 273 273 271 252 189 150 148 132 138 129 125 137 137 139 144 155 165 169 173 173 171 172 177 183 187 192 189 195 202 208 210 204 213 206
271 267 274 273 263 244 255 257 254 256 266 272 274 262 188 196 160 155 157 126 117 116 116 114 121 133 144 157 169 173 176 174 175 176 179 188 188 189 197 203 206 206 203 206
317 279 268 264 263 244 249 258 258 262 265 264 266 249 175 203 144 142 124 116 112 106 98 101 105 110 131 142 144 155 167 175 179 177 181 186 194 194 195 196 194 200 204 204
296 271 270 269 279 285 268 265 266 266 264 263 261 253 243 235 105 104 103 106 112 106 96 99 103 99 94 99 113 129 149 173 182 176 183 186 192 195 195 196 195 195 202 203
267 265 272 278 276 276 277 271 264 263 265 268 267 259 258 306 53 93 101 102 101 101 100 90 87 73 73 80 93 108 135 162 167 168 183 187 187 191 197 200 199 198 200 210
261 277 284 279 275 272 274 274 270 266 265 266 270 273 310 67 46 89 107 117 112 92 91 94 90 81 66 66 74 82 119 138 155 169 169 166 184 190 194 197 200 205 204 208
265 268 277 275 279 277 268 270 267 267 277 277 275 286 334 37 35 43 89 112 112 118 92 92 95 92 78 60 85 91 83 126 140 155 158 166 183 192 197 205 200 208 208 200
253 267 270 271 275 266 267 285 283 275 280 298 310 354 18 1 21 60 83 84 104 117 106 92 91 96 98 70 61 104 115 141 154 160 160 169 186 190 194 198 198 192 185 184
248 246 259 266 264 262 258 270 278 280 284 334 350 352 3 5 3 54 69 57 86 113 112 118 134 131 108 97 78 109 122 157 191 179 167 182 190 199 196 191 188 186 191 192
238 229 243 257 264 265 269 327 330 288 259 11 13 4 351 330 292 354 30 34 45 82 97 103 141 132 119 107 120 149 168 185 231 234 218 224 211 199 195 194 195 202 205 208
223 225 236 250 258 261 303 342 318 268 308 8 9 10 4 353 342 348 25 38 39 59 73 81 156 151 126 114 115 171 233 253 273 277 244 230 225 202 189 186 188 189 206 202
237 235 234 246 252 258 6 355 359 26 15 5 4 13 8 1 354 346 14 27 19 10 3 344 49 98 104 140 156 218 286 327 341 293 202 195 214 239 198 164 183 193 206 215
245 266 281 281 267 37 18 20 11 2 355 349 345 351 348 333 330 325 330 312 321 336 317 308 336 3 53 115 190 219 267 332 325 332 298 224 221 198 154 176 188 193 200 231
252 261 281 291 272 335 356 356 344 354 350 340 341 339 333 324 313 305 310 291 310 319 323 310 288 266 290 296 280 248 238 285 179 236 264 218 194 195 169 200 209 209 197 225
309 302 265 261 275 295 309 334 333 334 333 329 334 338 338 332 326 328 347 340 340 1 348 344 340 306 276 277 304 277 295 50 93 250 256 244 220 209 183 161 128 146 79 203
269 270 263 271 286 288 292 308 313 315 322 329 332 334 334 337 332 329 337 352 11 7 359 348 330 309 299 303 288 292 316 305 234 248 257 257 247 222 184 162 123 65 73 97
Height
1460 1462 1460 1455 1450 1449 1450 1454 1457 1448 1439 1443 1447 1450 1451 1455 1459 1464 1470 1474 1479 1483 1488 1491 1494 1497 1499 1501 1503 1505 1507 1509 1511 1513 1514 1516 1518 1520 1522 1524 1526 1527 1529 1531
1457 1458 1451 1448 1445 1446 1449 1454 1453 1446 1440 1443 1445 1447 1445 1449 1453 1459 1464 1470 1475 1480 1485 1489 1492 1495 1497 1499 1502 1504 1506 1508 1510 1512 1514 1516 1518 1520 1522 1524 1525 1527 1529 1531
1456 1449 1445 1446 1447 1449 1450 1452 1451 1450 1444 1442 1447 1453 1448 1446 1448 1453 1459 1465 1470 1475 1480 1485 1489 1492 1495 1497 1499 1502 1504 1507 1509 1511 1513 1516 1518 1520 1522 1523 1524 1526 1528 1530
1447 1442 1442 1444 1445 1447 1453 1444 1443 1445 1451 1454 1450 1468 1455 1447 1448 1450 1455 1460 1465 1471 1476 1481 1485 1489 1492 1495 1497 1500 1502 1505 1507 1509 1511 1514 1516 1518 1520 1521 1523 1525 1527 1529
1445 1440 1442 1445 1442 1441 1444 1438 1440 1443 1448 1453 1450 1461 1460 1448 1453 1451 1452 1455 1461 1467 1472 1477 1481 1485 1489 1493 1495 1498 1500 1503 1505 1507 1510 1512 1514 1516 1519 1520 1522 1524 1525 1527
1440 1436 1437 1438 1436 1437 1438 1440 1441 1443 1450 1467 1456 1459 1463 1452 1450 1451 1452 1455 1459 1464 1469 1474 1479 1483 1487 1491 1493 1495 1498 1500 1502 1505 1507 1510 1512 1514 1517 1518 1520 1522 1523 1525
1445 1437 1434 1435 1440 1437 1439 1451 1465 1469 1470 1469 1448 1452 1456 1445 1440 1445 1450 1453 1456 1461 1466 1471 1476 1480 1484 1488 1491 1493 1495 1497 1500 1502 1505 1507 1510 1512 1514 1516 1518 1519 1521 1522
1451 1448 1434 1433 1438 1443 1440 1446 1467 1479 1474 1464 1450 1454 1447 1435 1437 1442 1446 1449 1455 1459 1463 1468 1472 1477 1481 1485 1488 1491 1492 1495 1497 1500 1502 1504 1507 1509 1511 1513 1515 1517 1518 1520
1448 1446 1430 1430 1432 1436 1443 1443 1438 1449 1455 1466 1458 1450 1443 1437 1437 1440 1444 1448 1452 1456 1461 1465 1470 1474 1478 1482 1485 1488 1490 1492 1495 1497 1499 1502 1504 1506 1508 1510 1512 1514 1515 1517
1442 1450 1435 1429 1432 1432 1435 1438 1443 1452 1467 1475 1464 1459 1456 1444 1443 1440 1443 1447 1452 1456 1460 1463 1468 1472 1476 1480 1483 1486 1488 1490 1492 1495 1497 1499 1501 1503 1505 1507 1509 1510 1512 1514
1442 1451 1443 1435 1438 1441 1438 1441 1443 1447 1450 1467 1473 1466 1443 1444 1442 1444 1446 1448 1452 1457 1460 1463 1467 1471 1475 1478 1481 1484 1487 1489 1490 1492 1494 1496 1498 1500 1502 1504 1506 1507 1509 1511
1444 1447 1451 1440 1429 1429 1434 1437 1441 1455 1458 1454 1462 1462 1437 1437 1440 1443 1447 1451 1454 1458 1460 1464 1467 1471 1474 1477 1480 1482 1485 1486 1488 1490 1492 1493 1495 1497 1499 1500 1502 1504 1505 1507
1451 1454 1462 1455 1444 1435 1437 1435 1435 1438 1445 1452 1460 1460 1438 1440 1441 1443 1447 1451 1455 1458 1461 1464 1467 1471 1473 1475 1478 1480 1482 1484 1486 1487 1489 1491 1492 1494 1495 1497 1498 1500 1502 1504
1455 1456 1460 1465 1455 1444 1443 1440 1436 1440 1448 1451 1451 1450 1442 1441 1442 1445 1449 1452 1456 1460 1463 1465 1468 1471 1473 1474 1476 1478 1480 1482 1484 1485 1486 1487 1489 1491 1492 1494 1496 1497 1499 1501
1453 1456 1452 1447 1442 1440 1441 1439 1438 1441 1441 1446 1444 1444 1443 1443 1445 1447 1451 1454 1458 1461 1464 1466 1468 1471 1473 1474 1475 1477 1478 1480 1481 1482 1484 1485 1486 1488 1490 1491 1493 1494 1496 1497
1453 1458 1456 1453 1443 1440 1441 1437 1436 1437 1437 1438 1439 1442 1440 1444 1447 1449 1452 1455 1458 1462 1465 1466 1468 1470 1471 1473 1474 1475 1477 1478 1479 1480 1481 1482 1484 1485 1487 1488 1490 1491 1492 1494
1456 1460 1464 1460 1447 1443 1449 1439 1437 1437 1434 1437 1442 1443 1442 1445 1449 1451 1453 1455 1459 1462 1464 1465 1468 1469 1470 1472 1473 1474 1475 1476 1477 1478 1479 1480 1482 1483 1484 1486 1487 1488 1489 1490
1458 1462 1463 1461 1458 1466 1447 1431 1432 1436 1435 1435 1438 1441 1444 1447 1450 1452 1454 1457 1459 1462 1464 1465 1467 1468 1470 1471 1472 1473 1474 1475 1475 1476 1477 1478 1479 1480 1482 1483 1483 1484 1485 1486
1451 1458 1463 1462 1461 1454 1442 1435 1436 1440 1443 1441 1442 1444 1447 1449 1451 1453 1455 1457 1459 1461 1463 1465 1467 1467 1469 1470 1471 1471 1472 1471 1473 1474 1474 1475 1476 1477 1478 1479 1480 1481 1482 1483
1450 1454 1463 1462 1465 1462 1448 1438 1437 1440 1449 1446 1447 1449 1450 1451 1454 1456 1457 1458 1459 1461 1463 1464 1465 1466 1467 1468 1469 1470 1470 1470 1470 1471 1472 1473 1474 1474 1475 1476 1477 1478 1479 1480
1453 1457 1461 1461 1462 1451 1442 1441 1441 1453 1457 1451 1451 1452 1454 1455 1457 1458 1458 1459 1460 1461 1463 1463 1464 1464 1465 1466 1467 1467 1468 1468 1468 1468 1469 1470 1471 1472 1472 1473 1473 1474 1475 1476
1452 1455 1458 1459 1462 1459 1447 1445 1450 1455 1453 1453 1454 1455 1456 1457 1457 1457 1457 1458 1459 1461 1462 1462 1463 1463 1463 1464 1464 1465 1465 1465 1465 1466 1466 1466 1467 1468 1469 1470 1470 1471 1472 1473
1448 1451 1452 1456 1458 1455 1453 1453 1455 1455 1454 1454 1455 1455 1456 1456 1457 1457 1457 1457 1458 1459 1460 1461 1461 1461 1462 1462 1462 1462 1463 1463 1463 1463 1463 1464 1465 1465 1466 1467 1467 1468 1469 1470
1447 1449 1452 1455 1453 1454 1455 1456 1457 1457 1456 1455 1455 1456 1456 1456 1456 1456 1455 1456 1457 1458 1458 1459 1459 1460 1460 1460 1460 1460 1461 1460 1460 1460 1460 1461 1461 1463 1464 1465 1465 1466 1467 1468
1454 1454 1453 1455 1455 1456 1456 1457 1458 1457 1457 1457 1455 1455 1456 1455 1455 1454 1454 1455 1455 1456 1457 1457 1457 1458 1458 1458 1458 1458 1458 1458 1458 1458 1458 1458 1459 1461 1461 1462 1464 1464 1465 1466
1453 1454 1455 1455 1455 1456 1456 1457 1458 1458 1457 1456 1455 1454 1454 1454 1454 1454 1454 1454 1454 1455 1455 1455 1456 1456 1456 1455 1455 1455 1455 1455 1456 1455 1456 1457 1458 1458 1459 1460 1461 1462 1463 1464